User: anonymous   Login
Location: Bear Valley Meadows
(40.9851°N, 123.0761°W)
Time: 20:19:39
(UTC+00:00)
Language:

SL-8 Rocket - Orbit

View from above orbital plane
View from above orbital plane
View from above satellite
View from above satellite

Ground track
Ground track

The orbit data is extracted from the following two-line orbital elements,

1 21088U 91006B   24197.90107499  .00000055  00000-0  40051-4 0  9991
2 21088  82.9411 257.6825 0021096 281.2726 252.4198 13.77353496681494
Epoch (UTC): 15 July 2024 21:37:32
Eccentricity: 0.0021096
inclination: 82.9411°
perigee height: 958 km
apogee height: 989 km
right ascension of ascending node: 257.6825°
argument of perigee: 281.2726°
revolutions per day: 13.77353496
mean anomaly at epoch: 252.4198°
orbit number at epoch: 68149

The dashed part of the orbit path shows where the satellite is in the earth's shadow,  

DLR